[[{"header":{"parameterUnit":"m.s-1","parameterCategory":1,"la1":30.2991,"la2":30.254,"lo1":-89.0895,"lo2":-89.0444,"dy":0.0017,"dx":0.0017,"nx":28,"ny":28,"refTime":"2026-02-24T09:00:00:Z","depth":0,"parameterNumber":2,"parameterNumberName":"U-component_of_WINDS"},"data":[0,0,0,0,0,0,0,0,0,0,0,0,0,0,0,0,0,0,0,0,0,0,0,0,0,0,0,0,0,0,0,0,0,0,0,0,0,0,0,0,0,0,0,0,0,0,0,0,0,0,0,0,0,0,0,0,0,0,-0.7991,-0.7991,0,-0.7979,-0.7978,-0.7978,-0.794,-0.7939,-0.7938,-0.7937,-0.7926,-0.7926,-0.7927,0,0,0,0,0,0,0,0,0,0,0,0,0,-0.7983,-0.7983,-0.7991,-0.7991,-0.799,-0.7979,-0.7978,-0.7978,-0.794,-0.7939,-0.7938,-0.7937,-0.7925,-0.7926,-0.7927,0,0,0,0,0,0,0,0,0,0,0,0,0,-0.798,-0.7983,-0.7991,-0.797,-0.7968,-0.7979,-0.7978,-0.7978,-0.794,-0.7939,-0.7937,-0.7936,-0.7925,-0.7926,-0.7927,-0.7957,0,0,-0.7929,-0.7929,0,0,0,0,0,0,0,0,-0.798,-0.798,-0.7973,-0.7971,-0.7969,-0.7959,-0.7971,-0.7971,-0.794,-0.7951,-0.7937,-0.7936,-0.7938,-0.7938,-0.7938,-0.7957,-0.7956,-0.7929,-0.793,-0.793,-0.793,0,0,0,0,0,0,0,-0.798,-0.7981,-0.7986,-0.7973,-0.7971,-0.7962,-0.796,-0.7971,-0.7952,-0.795,-0.7947,-0.7946,-0.7937,-0.7938,-0.7938,-0.7956,-0.7929,-0.793,-0.793,-0.793,-0.8,-0.8002,0,0,0,0,0,0,-0.7983,-0.7981,-0.7986,-0.7986,-0.7971,-0.7963,-0.7961,-0.7964,-0.7951,-0.7948,-0.7947,-0.7944,-0.7937,-0.7937,-0.7937,-0.7972,-0.793,-0.7931,-0.7931,-0.7999,-0.8,-0.8002,0,0,0,0,0,0,-0.7983,-0.7984,-0.7987,-0.7983,-0.7982,-0.7964,-0.7968,-0.7964,-0.7965,-0.7949,-0.7946,-0.7951,-0.7936,-0.7936,-0.7953,-0.7971,-0.7931,-0.7932,-0.7997,-0.7999,-0.8001,-0.8042,0,0,0,0,0,0,-0.7983,-0.7984,-0.7995,-0.7983,-0.7983,-0.8002,-0.7969,-0.7965,-0.7966,-0.7962,-0.7953,-0.795,-0.7935,-0.7952,-0.7953,-0.7971,-0.7932,-0.7995,-0.7998,-0.8001,-0.8039,-0.8045,-0.8051,0,0,0,0,0,-0.7983,-0.8007,-0.7996,-0.7997,-0.7995,-0.8003,-0.8003,-0.7985,-0.7968,-0.7979,-0.7969,-0.795,-0.7969,-0.7954,-0.7955,-0.7974,-0.7994,-0.7997,-0.8,-0.8036,-0.8044,-0.805,0,0,0,0,0,0,-0.8021,-0.8005,-0.7992,-0.8013,-0.801,-0.7996,-0.8009,-0.7994,-0.7995,-0.7991,-0.797,-0.7968,-0.7988,-0.7983,-0.7966,-0.8003,-0.7979,-0.7982,-0.8005,-0.8012,-0.8018,-0.8018,-0.7933,0,0,0,0,0,-0.8033,-0.8039,-0.8025,-0.8045,-0.8044,-0.8027,-0.803,-0.8017,-0.8012,-0.8011,-0.8002,-0.7999,-0.8005,-0.8009,-0.8013,-0.8039,-0.8036,-0.8052,-0.8058,-0.8063,-0.8066,-0.808,-0.8087,-0.8012,-0.8012,-0.8012,0,0,-0.8055,-0.8047,-0.8052,-0.8052,-0.8048,-0.8056,-0.8026,-0.8036,-0.8042,-0.8012,-0.8027,-0.8021,-0.8017,-0.8038,-0.8048,-0.8035,-0.8087,-0.8067,-0.8071,-0.8071,-0.8084,-0.8091,-0.8097,-0.8015,-0.8014,-0.8014,0,0,-0.8099,-0.8094,-0.811,-0.8107,-0.8101,-0.8091,-0.8095,-0.8084,-0.8079,-0.8094,-0.8072,-0.808,-0.809,-0.8087,-0.8087,-0.8134,-0.8117,-0.8136,-0.8166,-0.818,-0.8186,-0.8191,-0.8207,-0.8213,-0.814,-0.814,-0.814,0,-0.8128,-0.8139,-0.812,-0.8132,-0.8132,-0.8107,-0.8123,-0.8121,-0.8118,-0.8119,-0.8105,-0.8118,-0.8113,-0.8133,-0.8145,-0.8146,-0.8151,-0.8136,-0.8186,-0.8191,-0.8196,-0.8211,-0.8217,-0.8142,-0.8142,-0.8142,-0.8141,0,-0.8174,-0.8182,-0.8196,-0.8193,-0.8195,-0.8209,-0.8194,-0.8199,-0.8187,-0.8178,-0.8194,-0.8188,-0.819,-0.8195,-0.8183,-0.8214,-0.8207,-0.819,-0.8165,-0.8205,-0.8219,-0.8225,-0.8145,-0.8145,-0.8144,-0.8143,0,0,-0.8239,-0.8228,-0.8233,-0.8231,-0.8225,-0.8231,-0.8245,-0.8247,-0.8252,-0.8251,-0.8262,-0.8272,-0.8257,-0.8258,-0.8245,-0.8258,-0.8295,-0.824,-0.8239,-0.8249,-0.833,-0.8341,-0.8348,-0.8284,-0.8285,-0.8286,-0.833,0,-0.8281,-0.8302,-0.8287,-0.8311,-0.8319,-0.8296,-0.8308,-0.8306,-0.8299,-0.8305,-0.8297,-0.8304,-0.8284,-0.8284,-0.8296,-0.8288,-0.831,-0.8285,-0.8294,-0.8294,-0.8294,-0.8355,-0.8367,-0.8408,-0.8335,-0.8336,-0.8337,0,-0.8331,-0.8333,-0.8358,-0.835,-0.8353,-0.8364,-0.8365,-0.8372,-0.8369,-0.8363,-0.8365,-0.835,-0.8364,-0.8341,-0.836,-0.8343,-0.8346,-0.8343,-0.8344,-0.8343,-0.8317,-0.8354,-0.842,-0.8426,-0.8345,-0.8344,-0.8344,0,-0.8375,-0.8384,-0.84,-0.84,-0.8392,-0.84,-0.8397,-0.8393,-0.8397,-0.8399,-0.8401,-0.8405,-0.8407,-0.8411,-0.8398,-0.8382,-0.8419,-0.8394,-0.8414,-0.8415,-0.8421,-0.842,-0.8487,-0.8426,-0.8426,-0.8426,-0.8426,0,-0.8422,-0.8438,-0.842,-0.8429,-0.8447,-0.8431,-0.8449,-0.8444,-0.8442,-0.845,-0.8432,-0.8441,-0.8424,-0.8432,-0.8423,-0.844,-0.8441,-0.8437,-0.8434,-0.8437,-0.8438,-0.8438,-0.8434,-0.8428,-0.8427,-0.8427,-0.8427,0,-0.8473,-0.8462,-0.8478,-0.8469,-0.8468,-0.8481,-0.8474,-0.8484,-0.8476,-0.8488,-0.849,-0.8478,-0.8487,-0.8475,-0.8482,-0.8476,-0.8499,-0.8493,-0.85,-0.8497,-0.8517,-0.8515,-0.8585,-0.8593,-0.8528,-0.8529,-0.8529,0,-0.8503,-0.8515,-0.8508,-0.8513,-0.8511,-0.8518,-0.8522,-0.8507,-0.8511,-0.8511,-0.852,-0.8527,-0.8531,-0.8546,-0.8539,-0.8544,-0.8537,-0.8561,-0.8538,-0.8541,-0.8536,-0.8535,-0.8536,-0.8565,-0.8566,-0.8567,-0.8567,0,-0.8556,-0.8551,-0.8555,-0.8559,-0.8563,-0.8566,-0.8567,-0.8572,-0.8557,-0.8563,-0.8571,-0.8574,-0.8582,-0.8589,-0.8594,-0.8592,-0.8577,-0.8576,-0.858,-0.8583,-0.8586,-0.8584,-0.8511,-0.8573,-0.8573,-0.8572,-0.8572,-0.8572,-0.8597,-0.8606,-0.8603,-0.861,-0.8609,-0.8611,-0.8619,-0.8614,-0.862,-0.8625,-0.8617,-0.8627,-0.8626,-0.863,-0.863,-0.8639,-0.8628,-0.8635,-0.8637,-0.8638,-0.8641,-0.8587,-0.864,-0.864,-0.864,-0.8639,-0.8639,0,-0.8648,-0.8646,-0.8652,-0.8654,-0.866,-0.8647,-0.8648,-0.8653,-0.8663,-0.8663,-0.8668,-0.8678,-0.8686,-0.868,-0.8686,-0.8694,-0.8688,-0.8696,-0.8695,-0.8695,-0.8651,-0.8645,-0.8701,-0.8701,-0.8701,-0.8701,-0.8701,-0.8701,-0.8675,-0.8691,-0.8685,-0.8701,-0.8699,-0.8708,-0.871,-0.8712,-0.8712,-0.8724,-0.873,-0.8727,-0.8725,-0.8731,-0.8738,-0.8736,-0.8739,-0.875,-0.8745,-0.8704,-0.8698,-0.8692,-0.8687,-0.8751,-0.8751,-0.8789,-0.8789,-0.8789]},{"header":{"parameterUnit":"m.s-1","parameterCategory":1,"la1":30.2991,"la2":30.254,"lo1":-89.0895,"lo2":-89.0444,"dy":0.0017,"dx":0.0017,"nx":28,"ny":28,"refTime":"2026-02-24T09:00:00:Z","depth":0,"parameterNumber":3,"parameterNumberName":"V-component_of_WINDS"},"data":[0,0,0,0,0,0,0,0,0,0,0,0,0,0,0,0,0,0,0,0,0,0,0,0,0,0,0,0,0,0,0,0,0,0,0,0,0,0,0,0,0,0,0,0,0,0,0,0,0,0,0,0,0,0,0,0,0,0,2.9085,2.9085,0,2.9096,2.9096,2.9097,2.9125,2.9126,2.9127,2.9127,2.9135,2.9135,2.9134,0,0,0,0,0,0,0,0,0,0,0,0,0,2.9087,2.9087,2.9085,2.9085,2.9086,2.9096,2.9096,2.9097,2.9125,2.9126,2.9127,2.9128,2.9135,2.9135,2.9134,0,0,0,0,0,0,0,0,0,0,0,0,0,2.9091,2.9087,2.9085,2.9101,2.9103,2.9096,2.9096,2.9097,2.9125,2.9126,2.9127,2.9128,2.9135,2.9135,2.9134,2.9112,0,0,2.9132,2.9132,0,0,0,0,0,0,0,0,2.9091,2.9091,2.9099,2.91,2.9102,2.9111,2.91,2.9102,2.9125,2.9117,2.9127,2.9128,2.9126,2.9126,2.9126,2.9112,2.9113,2.9132,2.9132,2.9132,2.9132,0,0,0,0,0,0,0,2.909,2.9091,2.909,2.9099,2.9101,2.9107,2.9109,2.91,2.9116,2.9117,2.912,2.9121,2.9127,2.9127,2.9126,2.9113,2.9132,2.9132,2.9132,2.9131,2.9083,2.9082,0,0,0,0,0,0,2.9088,2.909,2.9089,2.909,2.9099,2.9107,2.9108,2.9107,2.9116,2.9118,2.912,2.9122,2.9127,2.9127,2.9127,2.9102,2.9132,2.9131,2.9131,2.9084,2.9083,2.9081,0,0,0,0,0,0,2.9088,2.9088,2.9089,2.9091,2.9091,2.9106,2.9104,2.9106,2.9106,2.9118,2.912,2.9117,2.9128,2.9128,2.9116,2.9103,2.9131,2.9131,2.9085,2.9083,2.9082,2.9052,0,0,0,0,0,0,2.9088,2.9088,2.908,2.909,2.9091,2.9078,2.9103,2.9106,2.9106,2.9108,2.9116,2.9118,2.9129,2.9117,2.9115,2.9103,2.913,2.9086,2.9084,2.9082,2.9054,2.905,2.9046,0,0,0,0,0,2.9088,2.907,2.9079,2.9079,2.9082,2.9077,2.9078,2.9092,2.9104,2.9096,2.9104,2.9117,2.9105,2.9115,2.9114,2.9101,2.9087,2.9085,2.9083,2.9056,2.9051,2.9046,0,0,0,0,0,0,2.9055,2.9071,2.9082,2.9067,2.9071,2.9082,2.9072,2.9085,2.9085,2.9087,2.9103,2.9105,2.9091,2.9095,2.9106,2.9081,2.9098,2.9096,2.9078,2.9073,2.9069,2.9068,2.913,0,0,0,0,0,2.9047,2.9043,2.9057,2.9042,2.9044,2.9058,2.9056,2.9067,2.9071,2.9073,2.9079,2.9082,2.9079,2.9076,2.9074,2.9055,2.9058,2.9046,2.9042,2.9038,2.9036,2.9027,2.9022,2.9074,2.9074,2.9074,0,0,2.9028,2.9036,2.9033,2.9036,2.904,2.9035,2.9059,2.9052,2.9049,2.9071,2.9061,2.9066,2.9071,2.9056,2.905,2.9059,2.9022,2.9035,2.9033,2.9032,2.9024,2.9019,2.9015,2.9073,2.9073,2.9073,0,0,2.8992,2.8998,2.8987,2.8991,2.8998,2.9008,2.9005,2.9016,2.902,2.9011,2.9028,2.9024,2.9018,2.9021,2.9021,2.8988,2.9001,2.8987,2.8965,2.8956,2.8952,2.8949,2.8937,2.8933,2.8985,2.8985,2.8985,0,2.8967,2.8962,2.8979,2.8972,2.8973,2.8995,2.8984,2.8987,2.8992,2.8992,2.9003,2.8997,2.9001,2.8988,2.898,2.898,2.8977,2.8986,2.8952,2.8948,2.8945,2.8935,2.893,2.8983,2.8983,2.8983,2.8983,0,2.8932,2.8928,2.8918,2.8924,2.8924,2.8915,2.893,2.8928,2.8939,2.8948,2.8938,2.8945,2.8945,2.8942,2.8952,2.8931,2.8936,2.8949,2.8967,2.8938,2.8929,2.8925,2.898,2.8981,2.8982,2.8982,0,0,2.8873,2.8891,2.8887,2.8891,2.8901,2.8898,2.889,2.8892,2.889,2.8893,2.8887,2.8882,2.8895,2.8896,2.8906,2.8899,2.8873,2.8913,2.8913,2.8905,2.8851,2.8841,2.8836,2.8882,2.8881,2.8881,2.885,0,2.884,2.8828,2.8844,2.8829,2.8826,2.8848,2.8841,2.8846,2.8855,2.8853,2.8861,2.8858,2.8875,2.8876,2.8869,2.8878,2.8862,2.888,2.8876,2.8876,2.8874,2.8831,2.882,2.8791,2.8847,2.8846,2.8845,0,2.8798,2.8801,2.8786,2.8799,2.8798,2.8792,2.8796,2.8794,2.88,2.8807,2.8809,2.8823,2.8816,2.8834,2.8824,2.8836,2.8836,2.884,2.8839,2.8839,2.8858,2.8829,2.8782,2.8777,2.884,2.884,2.884,0,2.8758,2.8758,2.875,2.8752,2.8767,2.8762,2.8768,2.8776,2.8776,2.8779,2.8779,2.8781,2.8781,2.8782,2.8796,2.8808,2.8785,2.8804,2.879,2.879,2.8783,2.8784,2.8735,2.8783,2.8783,2.8783,2.8784,0,2.8718,2.8708,2.8732,2.8727,2.8716,2.8735,2.8724,2.8732,2.8739,2.8735,2.8754,2.875,2.8769,2.8766,2.8777,2.8768,2.8768,2.8773,2.8776,2.8771,2.8771,2.8771,2.8773,2.8782,2.8783,2.8783,2.8783,0,2.8671,2.8686,2.8679,2.8694,2.8698,2.8689,2.8702,2.8698,2.8708,2.8703,2.8703,2.8719,2.8718,2.8732,2.8733,2.874,2.8726,2.8733,2.8724,2.8726,2.8712,2.8713,2.8662,2.8656,2.8707,2.8707,2.8707,0,2.8644,2.8637,2.8653,2.8652,2.8658,2.8656,2.8658,2.8676,2.8676,2.8685,2.8679,2.868,2.8681,2.8678,2.8689,2.8691,2.8697,2.8679,2.8697,2.8693,2.8697,2.8698,2.8697,2.8675,2.8674,2.8674,2.8674,0,2.8596,2.8604,2.8606,2.861,2.8612,2.8616,2.8621,2.8619,2.864,2.8639,2.8639,2.864,2.8642,2.8643,2.8647,2.8652,2.8666,2.8668,2.8665,2.866,2.8656,2.8658,2.8714,2.8669,2.8669,2.867,2.867,2.867,2.8558,2.8554,2.8564,2.8565,2.8572,2.8577,2.8574,2.8585,2.8585,2.859,2.86,2.8599,2.8607,2.8614,2.8618,2.8617,2.8625,2.8621,2.8619,2.8618,2.8616,2.8656,2.8617,2.8617,2.8618,2.8618,2.8618,0,2.8511,2.8519,2.8521,2.8528,2.853,2.8545,2.8552,2.8551,2.855,2.8557,2.8559,2.8559,2.856,2.8572,2.8575,2.8572,2.8578,2.8572,2.8572,2.8573,2.8607,2.861,2.8566,2.8566,2.8566,2.8566,2.8566,2.8566,2.8486,2.848,2.849,2.8487,2.8496,2.8495,2.8498,2.8503,2.8509,2.8509,2.851,2.8519,2.8528,2.8532,2.8533,2.8537,2.8537,2.8528,2.8534,2.8565,2.857,2.8575,2.8578,2.8528,2.8528,2.85,2.85,2.8499]}]]